Tracking 22879 objects as of 21-Apr-2021
HD Live streaming from Space Station
objects crossing your sky now

COSMOS 2408

Track COSMOS 2408 now!
10-day predictions
COSMOS 2408 is classified as:


NORAD ID: 28419
Int'l Code: 2004-037A
Perigee: 1,476.3 km
Apogee: 1,503.7 km
Inclination: 82.5 °
Period: 115.6 minutes
Semi major axis: 7860 km
RCS: 0.961 m2 (medium)
Launch date: September 23, 2004
Source: Commonwealth of Independent States (former USSR) (CIS)
Launch site: PLESETSK MISSILE AND SPACE COMPLEX (PKMTR)

Store-dump communications for Russian government and military.
aabbcc
Your satellite tracking list
Your tracking list is empty




NASA's NSSDC Master Catalog

Two Line Element Set (TLE):
1 28419U 04037A   21111.17723709  .00000008  00000-0 -11825-4 0  9990
2 28419  82.4843  65.3866 0017404  75.5392 284.7628 12.45624303753637
Source of the keplerian elements: AFSPC